sat.trackr.live / text

‹ back to catalog

STARLINK-34325

NORAD 64262 · 2025-120G

PAYLOAD ACTIVE UNKNOWN

§ Identity

Operator
Country
US
Launch date
2025-06-04
Launch site
AFWTR
Launch vehicle
Mass (kg)
RCS (m²)

Purposes: comms

External: N2YO · Heavens-Above · Gunter

§ Orbital elements

Epoch: 2026-05-25T02:44:50.952768Z

Period
94.10 min
Inclination
53.1589°
Eccentricity
0.0001180
Mean motion
15.30210828 rev/d
Perigee alt
474.4 km
Apogee alt
476.0 km
Semi-major
6,853.3 km
B*
4.6191e-4
RAAN
121.9482°
Arg perigee
118.8507°
Mean anomaly
241.2612°
Rev number
5,561

§ Raw data

STARLINK-343251 64262U 25120G   26145.11447862  .00013350  00000+0  46191-3 0  99962 64262  53.1589 121.9482 0001180 118.8507 241.2612 15.30210828 55615

JSON: /api/v1/satellites/64262 · /tle

For live sub-satellite position, see the globe view (requires WebGL).

§ Visibility from observer

Set your observer location to see the next 7 days of passes ≥ 10°. The values pass through the URL so the page stays shareable.

No JS? Fill the form by hand. The geolocation button needs JavaScript.